Weather History for Troy, MI

Change the Weather History Date:

Wednesday, May 22, 2013

  Actual Average (KDET) Record (KDET)
Temperature  
Mean Temperature 72 °F -  
Max Temperature 80 °F 72 °F 91 °F (1977)
Min Temperature 64 °F 52 °F 35 °F (1976)
Cooling Degree Days 7    
Growing Degree Days 22 (Base 50)    
Moisture  
Dew Point 62 °F    
Average Humidity 71    
Maximum Humidity 94    
Minimum Humidity 42    
Precipitation  
Precipitation 0.00 in - - ()
Sea Level Pressure  
Sea Level Pressure 29.73 in    
Wind  
Wind Speed 7 mph (SW)    
Max Wind Speed 25 mph    
Max Gust Speed 37 mph    
Visibility 10 miles    
Events Rain    
Averages and records for this station are not official NWS values.
T = Trace of Precipitation, MM = Missing Value Source: NWS Daily Summary

Daily Weather History Graph

Daily Weather History Graph

Search for Another Location

Airport:

Trip Planner

Search our weather history database for the weather conditions in past years. The results will help you decide how hot, cold, wet, or windy it might be!

Date:

Astronomy

May. 22, 2013 Rise Set
Actual Time 6:04 AM EDT 8:55 PM EDT
Civil Twilight 5:31 AM EDT 9:28 PM EDT
Nautical Twilight 4:49 AM EDT 10:10 PM EDT
Astronomical Twilight 4:00 AM EDT 10:59 PM EDT
Moon 6:13 PM EDT (5/22) 4:11 AM EDT (5/22)
Length of Visible Light 15h 57m
Length of Day
14h 51m
Waxing Gibbous, 91% of the Moon is Illuminated
May 22
Waxing Gibbous
May 25
Full
May 31
Last Quarter
Jun 8
New
Jun 16
First Quarter

Hourly Weather History & Observations

Time (EDT) Temp. Heat Index Dew Point Humidity Pressure Visibility Wind Dir Wind Speed Gust Speed Precip Events Conditions
12:15 AM 74.5 °F - 62.4 °F 66% 29.79 in 10.0 mi Calm Calm - N/A   Mostly Cloudy
12:34 AM 73.9 °F - 61.7 °F 65% 29.79 in 10.0 mi Calm Calm - N/A   Mostly Cloudy
12:55 AM 74.1 °F - 61.2 °F 64% 29.78 in 10.0 mi South 3.5 mph - N/A   Mostly Cloudy
1:15 AM 73.4 °F - 61.0 °F 65% 29.77 in 10.0 mi South 3.5 mph - N/A   Scattered Clouds
1:34 AM 73.4 °F - 60.8 °F 65% 29.77 in 10.0 mi SSW 3.5 mph - N/A   Clear
1:55 AM 73.2 °F - 61.2 °F 66% 29.77 in 10.0 mi SW 3.5 mph - N/A   Clear
2:14 AM 72.0 °F - 61.7 °F 70% 29.77 in 10.0 mi SSW 3.5 mph - N/A   Clear
2:35 AM 71.6 °F - 61.7 °F 71% 29.77 in 10.0 mi SW 3.5 mph - N/A   Clear
2:55 AM 71.2 °F - 62.1 °F 73% 29.76 in 10.0 mi SSW 6.9 mph - N/A   Clear
3:15 AM 71.6 °F - 61.3 °F 70% 29.77 in 10.0 mi SW 6.9 mph - N/A   Clear
3:35 AM 72.1 °F - 60.8 °F 67% 29.76 in 10.0 mi SW 8.1 mph - N/A   Clear
3:54 AM 72.0 °F - 60.3 °F 67% 29.75 in 10.0 mi SW 8.1 mph - N/A   Clear
4:15 AM 72.0 °F - 60.1 °F 66% 29.75 in 10.0 mi SSW 6.9 mph - N/A   Clear
4:34 AM 71.6 °F - 60.1 °F 67% 29.76 in 10.0 mi SW 6.9 mph - N/A   Clear
4:55 AM 71.4 °F - 60.1 °F 67% 29.75 in 10.0 mi SW 5.8 mph - N/A   Clear
5:15 AM 70.9 °F - 60.3 °F 69% 29.75 in 10.0 mi SW 4.6 mph - N/A   Clear
5:34 AM 70.9 °F - 60.1 °F 69% 29.76 in 10.0 mi SSW 6.9 mph - N/A   Clear
5:55 AM 70.9 °F - 60.3 °F 69% 29.76 in 10.0 mi SSW 6.9 mph - N/A   Clear
6:15 AM 70.7 °F - 60.3 °F 69% 29.76 in 10.0 mi SSW 8.1 mph - N/A   Mostly Cloudy
6:35 AM 70.7 °F - 60.1 °F 69% 29.76 in 10.0 mi SSW 8.1 mph - N/A   Mostly Cloudy
6:55 AM 70.7 °F - 59.9 °F 69% 29.77 in 10.0 mi SSW 10.4 mph - N/A   Mostly Cloudy
7:14 AM 69.8 °F - 61.2 °F 74% 29.77 in 10.0 mi SW 9.2 mph - N/A Rain Light Rain
7:35 AM 69.8 °F - 61.0 °F 73% 29.77 in 10.0 mi SSW 5.8 mph - N/A   Overcast
7:55 AM 69.1 °F - 62.2 °F 79% 29.78 in 7.0 mi SSW 9.2 mph - N/A Rain Light Rain
8:14 AM 68.4 °F - 63.1 °F 83% 29.78 in 7.0 mi South 6.9 mph - N/A Rain Rain
8:35 AM 68.9 °F - 63.7 °F 83% 29.78 in 10.0 mi South 6.9 mph - N/A   Mostly Cloudy
8:55 AM 69.3 °F - 63.7 °F 82% 29.78 in 10.0 mi SSW 5.8 mph - N/A   Mostly Cloudy
9:14 AM 69.3 °F - 63.7 °F 82% 29.78 in 10.0 mi SSW 9.2 mph 18.4 mph N/A   Mostly Cloudy
9:35 AM 70.2 °F - 64.4 °F 82% 29.77 in 10.0 mi SSW 10.4 mph 17.3 mph N/A   Scattered Clouds
9:55 AM 70.9 °F - 64.4 °F 80% 29.76 in 10.0 mi SSW 8.1 mph - N/A   Scattered Clouds
10:14 AM 71.4 °F - 64.6 °F 79% 29.75 in 10.0 mi SW 11.5 mph - N/A   Scattered Clouds
10:35 AM 71.8 °F - 64.4 °F 77% 29.75 in 10.0 mi SW 11.5 mph 16.1 mph N/A   Mostly Cloudy
10:55 AM 71.8 °F - 64.4 °F 77% 29.75 in 10.0 mi SSW 9.2 mph - N/A   Mostly Cloudy
11:15 AM 72.5 °F - 64.4 °F 76% 29.75 in 10.0 mi SSW 15.0 mph 21.9 mph N/A   Mostly Cloudy
11:35 AM 73.9 °F - 64.4 °F 72% 29.75 in 10.0 mi SW 9.2 mph 16.1 mph N/A   Mostly Cloudy
11:54 AM 76.1 °F - 63.7 °F 65% 29.73 in 10.0 mi SW 13.8 mph 18.4 mph N/A   Mostly Cloudy
12:15 PM 76.6 °F - 63.5 °F 64% 29.73 in 10.0 mi SSW 13.8 mph 24.2 mph N/A   Mostly Cloudy
12:35 PM 76.1 °F - 62.8 °F 63% 29.73 in 10.0 mi SSW 19.6 mph 27.6 mph N/A   Overcast
12:54 PM 75.2 °F - 62.8 °F 65% 29.73 in 10.0 mi SSW 15.0 mph 24.2 mph N/A   Overcast
1:15 PM 75.6 °F - 63.1 °F 65% - 10.0 mi SSW 10.4 mph 19.6 mph N/A   Mostly Cloudy
1:34 PM 74.5 °F - 63.5 °F 68% 29.72 in 10.0 mi SSW 8.1 mph 20.7 mph N/A   Overcast
1:55 PM 75.2 °F - 63.9 °F 68% 29.71 in 10.0 mi SSW 9.2 mph 18.4 mph N/A   Mostly Cloudy
2:15 PM 77.7 °F - 63.9 °F 62% 29.71 in 10.0 mi SSW 17.3 mph 24.2 mph N/A   Scattered Clouds
2:34 PM 76.3 °F - 61.5 °F 60% 29.70 in 10.0 mi SSW 18.4 mph 27.6 mph N/A   Mostly Cloudy
2:55 PM 76.1 °F - 61.7 °F 61% 29.70 in 10.0 mi SSW 16.1 mph 24.2 mph N/A   Overcast
3:14 PM 75.9 °F - 61.0 °F 60% 29.70 in 10.0 mi SSW 12.7 mph 21.9 mph N/A   Overcast
3:35 PM 78.4 °F - 60.8 °F 55% 29.69 in 10.0 mi SSW 16.1 mph 27.6 mph N/A   Scattered Clouds
3:54 PM 78.8 °F - 61.0 °F 54% 29.68 in 10.0 mi SW 17.3 mph 23.0 mph N/A   Mostly Cloudy
4:15 PM 79.7 °F - 59.2 °F 49% 29.68 in 10.0 mi SSW 16.1 mph 28.8 mph N/A   Mostly Cloudy
4:35 PM 80.8 °F 81.0 °F 57.4 °F 45% 29.67 in 10.0 mi SW 18.4 mph 29.9 mph N/A   Scattered Clouds
4:55 PM 79.9 °F - 56.5 °F 45% 29.66 in 10.0 mi SW 17.3 mph 26.5 mph N/A   Mostly Cloudy
5:15 PM 80.1 °F 80.2 °F 55.6 °F 43% 29.66 in 10.0 mi SW 15.0 mph 28.8 mph N/A   Mostly Cloudy
5:34 PM 80.6 °F 80.6 °F 55.9 °F 43% 29.66 in 10.0 mi SW 11.5 mph 24.2 mph N/A   Mostly Cloudy
5:55 PM 79.9 °F - 54.9 °F 42% 29.67 in 10.0 mi SW 25.3 mph 35.7 mph N/A   Mostly Cloudy
6:14 PM 73.4 °F - 59.4 °F 61% 29.69 in 10.0 mi SW 20.7 mph 36.8 mph N/A Rain Light Rain
6:35 PM 70.7 °F - 61.2 °F 72% 29.69 in 10.0 mi SW 15.0 mph 18.4 mph N/A   Mostly Cloudy
6:55 PM 70.0 °F - 61.3 °F 74% 29.69 in 10.0 mi SW 8.1 mph - N/A   Mostly Cloudy
7:14 PM 70.9 °F - 61.3 °F 72% 29.69 in 10.0 mi SW 8.1 mph - N/A   Mostly Cloudy
7:35 PM 70.7 °F - 60.6 °F 70% 29.70 in 10.0 mi SW 6.9 mph - N/A   Clear
7:55 PM 70.3 °F - 60.1 °F 70% 29.70 in 10.0 mi WSW 10.4 mph - N/A   Clear
8:15 PM 70.5 °F - 59.9 °F 69% 29.70 in 10.0 mi West 5.8 mph - N/A   Clear
8:35 PM 70.7 °F - 60.1 °F 69% 29.71 in 10.0 mi WSW 3.5 mph - N/A   Scattered Clouds
8:55 PM 67.8 °F - 63.5 °F 86% 29.71 in 1.8 mi SW 8.1 mph - N/A Rain Light Rain
9:15 PM 66.2 °F - 64.0 °F 93% 29.72 in 10.0 mi SW 6.9 mph - N/A Rain Light Rain
9:35 PM 66.2 °F - 63.5 °F 91% 29.72 in 10.0 mi SW 6.9 mph - N/A   Mostly Cloudy
9:55 PM 65.5 °F - 63.0 °F 92% 29.72 in 10.0 mi WSW 5.8 mph - N/A   Mostly Cloudy
10:15 PM 65.3 °F - 63.0 °F 92% 29.71 in 10.0 mi SW 4.6 mph - N/A   Scattered Clouds
10:35 PM 64.8 °F - 62.8 °F 93% 29.73 in 10.0 mi SW 6.9 mph - N/A   Clear
10:55 PM 64.6 °F - 62.6 °F 93% 29.73 in 10.0 mi SW 6.9 mph - N/A   Clear
11:15 PM 64.4 °F - 62.6 °F 94% 29.72 in 10.0 mi SW 6.9 mph - N/A   Scattered Clouds
11:35 PM 64.4 °F - 62.6 °F 94% 29.72 in 10.0 mi SW 6.9 mph - N/A   Mostly Cloudy
11:55 PM 64.4 °F - 62.2 °F 93% 29.72 in 10.0 mi SW 9.2 mph - N/A   Overcast